Weather WX

World > North America > United States > Ohio

Huntsville, Ohio Regional Weather

Lat: 40.44N, Lon: 83.8W
Wx Zone: OHZ044
Warning FLW WEATHER ALERT - FLASH FLOOD WATCH (More Info. Click Here) Warning
Feedback

Huntsville, OH Regional Weather

Expires:201906200600;;768022
ASUS41 KCLE 200512
RWRCLE
OHIO REGIONAL WEATHER ROUNDUP
NATIONAL WEATHER SERVICE WILMINGTON, OH
100 AM EDT THU JUN 20 2019

NOTE: "FAIR" INDICATES FEW OR NO CLOUDS BELOW 12,000 FEET WITH NO
SIGNIFICANT WEATHER AND/OR OBSTRUCTIONS TO VISIBILITY.


OHZ001>008-015>018-024>027-034-035-043-044-200600-
   NORTHWEST OHIO
  
CITY           SKY/WX    TMP DP  RH WIND       PRES   REMARKS
DEFIANCE       CLOUDY    69  66  90 CALM      29.63S FOG              
FINDLAY        CLOUDY    69  64  84 E6        29.62F                  
TOLEDO EXPRESS LGT RAIN  67  62  84 CALM      29.63F                  
TOLEDO EXEC    CLOUDY    67  64  90 CALM      29.64F                  
LIMA           LGT RAIN  67  65  93 CALM      29.64S                  
$$
 

SKY/WX - Weather  TMP - Temperature  DP - Dew Point  RH - Relative Humidity
WIND - Wind Direction/Speed PRES - Barometric Pressure VSB - Visibility
WCI - Wind Chill Index E13G22 Wind - East Wind 13 mph/Gusts of 22 mph